Location: Unspecified
(40.7945°N, 111.1337°W)
Time: 12:08:04
(UTC-06:00)

Resurs 1-4 Rocket - Pass Details

Date: 30 March 2019
Orbit: 799 x 815 km, 98.6° (Epoch: 24 April)

Event Time Altitude Azimuth Distance (km) Brightness Sun altitude
Rises 02:37:09 0° 21° (NNE) 3,324 6.1 -42.9°
Reaches altitude 10° 02:39:39 10° 29° (NNE) 2,386 5.2 -42.7°
Enters shadow 02:40:43 16° 34° (NE) 2,009 4.7 -42.6°
